• In Kazakhstan
  • List of Countries
  • For 7 days
  • Water Temperature
  • Satellite Maps
  • Weather Map
  • News
  • Weather Widgets
  • user-avatar
    Login

    Hourly Weather Mendoza

    Today, 16 November, Friday

    Time Temperature Precipitation Wind Pressure Humidity
    00:00 +19°C° 0 mm 4 mps 698 mmHg 49%
    01:00 +18°C° 0 mm 3 mps 698 mmHg 50%
    02:00 +18°C° 0 mm 3 mps 698 mmHg 50%
    03:00 +17°C° 0 mm 3 mps 697 mmHg 51%
    04:00 +17°C° 0 mm 3 mps 697 mmHg 52%
    05:00 +18°C° 0 mm 3 mps 697 mmHg 49%
    06:00 +18°C° 0 mm 4 mps 697 mmHg 46%
    07:00 +20°C° 0 mm 4 mps 697 mmHg 38%
    08:00 +21°C° 0 mm 4 mps 696 mmHg 36%
    09:00 +23°C° 0 mm 4 mps 696 mmHg 34%
    10:00 +25°C° 0 mm 3 mps 696 mmHg 32%
    11:00 +26°C° 0 mm 4 mps 696 mmHg 30%
    12:00 +28°C° 0 mm 4 mps 695 mmHg 28%
    13:00 +29°C° 0 mm 4 mps 694 mmHg 25%
    14:00 +29°C° 0 mm 4 mps 694 mmHg 24%
    15:00 +30°C° 0 mm 4 mps 694 mmHg 22%
    16:00 +30°C° 0 mm 4 mps 694 mmHg 21%
    17:00 +29°C° 0 mm 4 mps 694 mmHg 23%
    18:00 +28°C° 0 mm 3 mps 694 mmHg 25%
    19:00 +27°C° 0 mm 3 mps 693 mmHg 27%
    20:00 +26°C° 0.2 mm 3 mps 694 mmHg 29%
    21:00 +25°C° 0.2 mm 4 mps 694 mmHg 30%
    22:00 +23°C° 0.2 mm 4 mps 694 mmHg 32%
    23:00 +23°C° 0 mm 4 mps 694 mmHg 30%

    Tomorrow, 17 November, Saturday

    Time Temperature Precipitation Wind Pressure Humidity
    00:00 +22°C° 0 mm 5 mps 693 mmHg 28%
    01:00 +22°C° 0 mm 5 mps 693 mmHg 26%
    02:00 +21°C° 0 mm 5 mps 694 mmHg 25%
    03:00 +21°C° 0 mm 6 mps 694 mmHg 24%
    04:00 +20°C° 0 mm 6 mps 694 mmHg 23%
    05:00 +20°C° 0 mm 7 mps 695 mmHg 29%
    06:00 +20°C° 0 mm 7 mps 695 mmHg 36%
    07:00 +20°C° 0 mm 8 mps 696 mmHg 42%
    08:00 +21°C° 0 mm 8 mps 697 mmHg 39%
    09:00 +22°C° 0 mm 7 mps 697 mmHg 36%
    10:00 +23°C° 0 mm 7 mps 697 mmHg 34%
    11:00 +24°C° 0 mm 7 mps 697 mmHg 33%
    12:00 +26°C° 0 mm 6 mps 697 mmHg 32%
    13:00 +26°C° 0 mm 6 mps 697 mmHg 31%
    14:00 +26°C° 0 mm 6 mps 697 mmHg 31%
    15:00 +26°C° 0 mm 6 mps 697 mmHg 30%
    16:00 +26°C° 0 mm 6 mps 697 mmHg 30%
    17:00 +23°C° 0 mm 5 mps 698 mmHg 32%
    18:00 +22°C° 0 mm 5 mps 699 mmHg 34%
    19:00 +21°C° 0 mm 5 mps 700 mmHg 36%
    20:00 +20°C° 0 mm 4 mps 700 mmHg 36%
    21:00 +19°C° 0 mm 4 mps 701 mmHg 37%
    22:00 +18°C° 0 mm 3 mps 701 mmHg 38%
    23:00 +17°C° 0 mm 3 mps 701 mmHg 40%

    Day after tomorrow, 18 November, Sunday

    Time Temperature Precipitation Wind Pressure Humidity
    00:00 +17°C° 0 mm 2 mps 700 mmHg 41%
    01:00 +16°C° 0 mm 1 mps 700 mmHg 43%
    02:00 +16°C° 0 mm 2 mps 700 mmHg 44%
    03:00 +15°C° 0 mm 2 mps 699 mmHg 45%
    04:00 +15°C° 0 mm 2 mps 699 mmHg 46%
    05:00 +16°C° 0 mm 2 mps 699 mmHg 41%
    06:00 +18°C° 0 mm 3 mps 700 mmHg 36%
    07:00 +19°C° 0 mm 4 mps 700 mmHg 31%
    08:00 +21°C° 0 mm 4 mps 700 mmHg 28%
    09:00 +22°C° 0 mm 4 mps 700 mmHg 26%
    10:00 +25°C° 0 mm 5 mps 700 mmHg 24%
    11:00 +26°C° 0 mm 5 mps 699 mmHg 23%
    12:00 +27°C° 0 mm 5 mps 698 mmHg 22%
    13:00 +28°C° 0 mm 5 mps 698 mmHg 22%
    14:00 +28°C° 0 mm 4 mps 697 mmHg 21%
    15:00 +29°C° 0 mm 4 mps 697 mmHg 21%
    16:00 +29°C° 0 mm 4 mps 697 mmHg 20%
    17:00 +28°C° 0 mm 3 mps 697 mmHg 22%
    18:00 +27°C° 0 mm 3 mps 697 mmHg 24%
    19:00 +26°C° 0 mm 2 mps 697 mmHg 26%
    20:00 +25°C° 0 mm 2 mps 697 mmHg 28%
    21:00 +24°C° 0 mm 1 mps 697 mmHg 30%
    22:00 +24°C° 0 mm 1 mps 697 mmHg 32%
    23:00 +23°C° 0 mm 1 mps 697 mmHg 32%

    19 November, Monday

    Time Temperature Precipitation Wind Pressure Humidity
    00:00 +23°C° 0 mm 2 mps 696 mmHg 33%
    01:00 +21°C° 0 mm 2 mps 696 mmHg 33%
    02:00 +21°C° 0 mm 2 mps 696 mmHg 33%
    03:00 +20°C° 0 mm 2 mps 696 mmHg 33%
    04:00 +20°C° 0 mm 3 mps 695 mmHg 33%
    05:00 +21°C° 0 mm 3 mps 696 mmHg 31%
    06:00 +24°C° 0 mm 3 mps 697 mmHg 28%
    07:00 +26°C° 0 mm 3 mps 697 mmHg 26%
    08:00 +27°C° 0 mm 3 mps 697 mmHg 25%
    09:00 +29°C° 0 mm 3 mps 697 mmHg 24%
    10:00 +30°C° 0 mm 3 mps 697 mmHg 23%
    11:00 +32°C° 0 mm 4 mps 697 mmHg 22%
    12:00 +33°C° 0 mm 4 mps 696 mmHg 21%
    13:00 +34°C° 0 mm 4 mps 696 mmHg 20%
    14:00 +34°C° 0 mm 4 mps 695 mmHg 20%
    15:00 +34°C° 0 mm 4 mps 695 mmHg 19%
    16:00 +34°C° 0 mm 4 mps 695 mmHg 19%
    17:00 +33°C° 0 mm 3 mps 695 mmHg 21%
    18:00 +31°C° 0 mm 3 mps 696 mmHg 23%
    19:00 +29°C° 0 mm 2 mps 696 mmHg 25%
    20:00 +29°C° 0 mm 2 mps 696 mmHg 27%
    21:00 +28°C° 0 mm 3 mps 697 mmHg 30%
    22:00 +27°C° 0 mm 3 mps 697 mmHg 32%
    23:00 +27°C° 0 mm 3 mps 697 mmHg 34%

    20 November, Tuesday

    Time Temperature Precipitation Wind Pressure Humidity
    00:00 +26°C° 0 mm 2 mps 696 mmHg 36%
    01:00 +25°C° 0 mm 2 mps 696 mmHg 39%
    02:00 +24°C° 0 mm 2 mps 696 mmHg 40%
    03:00 +24°C° 0 mm 2 mps 696 mmHg 41%
    04:00 +23°C° 0 mm 2 mps 696 mmHg 42%
    05:00 +25°C° 0 mm 2 mps 697 mmHg 39%
    06:00 +26°C° 0 mm 2 mps 697 mmHg 36%
    07:00 +28°C° 0 mm 2 mps 698 mmHg 33%
    08:00 +29°C° 0 mm 3 mps 698 mmHg 30%
    09:00 +31°C° 0 mm 3 mps 698 mmHg 28%
    10:00 +33°C° 0 mm 3 mps 698 mmHg 26%
    11:00 +34°C° 0 mm 4 mps 697 mmHg 24%
    12:00 +35°C° 0 mm 4 mps 697 mmHg 23%
    13:00 +36°C° 0 mm 4 mps 696 mmHg 22%
    14:00 +36°C° 0 mm 4 mps 696 mmHg 21%
    15:00 +36°C° 0 mm 4 mps 696 mmHg 21%
    16:00 +36°C° 0 mm 4 mps 695 mmHg 21%
    17:00 +35°C° 0 mm 3 mps 696 mmHg 22%
    18:00 +34°C° 0 mm 3 mps 696 mmHg 24%
    19:00 +32°C° 0 mm 2 mps 696 mmHg 26%
    20:00 +31°C° 0 mm 3 mps 696 mmHg 28%
    21:00 +30°C° 0 mm 3 mps 697 mmHg 29%
    22:00 +30°C° 0 mm 3 mps 697 mmHg 31%
    23:00 +29°C° 0 mm 3 mps 696 mmHg 31%

    21 November, Wednesday

    Time Temperature Precipitation Wind Pressure Humidity
    00:00 +28°C° 0 mm 3 mps 696 mmHg 30%
    01:00 +28°C° 0 mm 3 mps 695 mmHg 30%
    02:00 +27°C° 0 mm 3 mps 695 mmHg 31%
    03:00 +26°C° 0 mm 3 mps 695 mmHg 32%
    04:00 +25°C° 0 mm 3 mps 695 mmHg 33%
    05:00 +27°C° 0 mm 3 mps 695 mmHg 30%
    06:00 +29°C° 0 mm 3 mps 696 mmHg 27%
    07:00 +30°C° 0 mm 3 mps 696 mmHg 24%
    08:00 +33°C° 0 mm 4 mps 696 mmHg 22%
    09:00 +34°C° 0 mm 4 mps 695 mmHg 20%
    10:00 +36°C° 0 mm 5 mps 695 mmHg 17%
    11:00 +37°C° 0 mm 5 mps 695 mmHg 17%
    12:00 +39°C° 0 mm 5 mps 694 mmHg 16%
    13:00 +39°C° 0 mm 5 mps 694 mmHg 15%
    14:00 +40°C° 0 mm 4 mps 693 mmHg 14%
    15:00 +40°C° 0 mm 4 mps 693 mmHg 14%
    16:00 +40°C° 0 mm 4 mps 693 mmHg 13%
    17:00 +37°C° 0 mm 4 mps 694 mmHg 15%
    18:00 +36°C° 0 mm 4 mps 694 mmHg 16%
    19:00 +35°C° 0 mm 4 mps 695 mmHg 18%
    20:00 +34°C° 0.2 mm 4 mps 695 mmHg 21%
    21:00 +32°C° 0.2 mm 4 mps 696 mmHg 24%
    22:00 +30°C° 0.2 mm 3 mps 697 mmHg 27%
    23:00 +27°C° 1.5 mm 5 mps 697 mmHg 37%
    Show more